KB1DML Weather Reports


time (UTC)temp
F
wind
direction
speed
knots
gust
knots
rain 1hr
in
rain 24hr
in
rain mn
in
humidity
%
barometer
mb
20220124102016 26 293 2.6 6.1 0.00 0.00 0.00 82 1009.5
20220124101519 26 293 1.7 5.2 0.00 0.00 0.00 82 1009.4
20220124101019 26 315 1.7 4.3 0.00 0.00 0.00 82 1009.3
20220124100519 26 315 2.6 5.2 0.00 0.00 0.00 82 1009.3
20220124100020 26 293 1.7 3.5 0.00 0.00 0.00 82 1009.2
20220124095516 26 315 1.7 3.5 0.00 0.00 0.00 82 1009.0
20220124095019 26 293 0.9 2.6 0.00 0.00 0.00 82 1008.9
20220124094519 26 293 0.9 5.2 0.00 0.00 0.00 82 1008.9
20220124094017 27 293 1.7 4.3 0.00 0.00 0.00 82 1008.8
20220124093516 27 293 0.9 2.6 0.00 0.00 0.00 82 1008.7
20220124093016 27 293 0.9 2.6 0.00 0.00 0.00 82 1008.6
20220124092516 27 0.0 1.7 0.00 0.00 0.00 82 1008.6
20220124092019 27 293 0.9 2.6 0.00 0.00 0.00 82 1008.5
20220124091516 27 315 0.9 1.7 0.00 0.00 0.00 82 1008.4
20220124091019 27 293 0.9 1.7 0.00 0.00 0.00 82 1008.5
20220124090520 27 315 0.9 1.7 0.00 0.00 0.00 82 1008.4
20220124090016 27 293 0.9 2.6 0.00 0.00 0.00 82 1008.4
20220124085519 27 225 0.9 1.7 0.00 0.00 0.00 82 1008.4
20220124085016 28 315 0.9 2.6 0.00 0.00 0.00 82 1008.4
20220124084519 28 225 0.9 5.2 0.00 0.00 0.00 82 1008.4
20220124084020 28 270 0.9 3.5 0.00 0.00 0.00 82 1008.3
20220124083516 28 270 0.9 3.5 0.00 0.00 0.00 82 1008.3
20220124083019 28 248 0.9 2.6 0.00 0.00 0.00 82 1008.1
20220124082519 28 248 0.9 3.5 0.00 0.00 0.00 82 1008.1
20220124082017 28 0.0 1.7 0.00 0.00 0.00 81 1008.0
20220124081519 28 293 0.9 2.6 0.00 0.00 0.00 81 1008.0
20220124081016 28 293 0.9 2.6 0.00 0.00 0.00 82 1008.0
20220124080519 28 225 0.9 3.5 0.00 0.00 0.00 82 1007.9
20220124080016 28 293 0.9 3.5 0.00 0.00 0.00 82 1007.8
20220124075520 28 293 0.9 1.7 0.00 0.00 0.00 81 1007.8
20220124075019 28 293 0.9 2.6 0.00 0.00 0.00 81 1007.8
20220124074516 28 248 0.9 2.6 0.00 0.00 0.00 81 1007.8
20220124074016 28 270 0.9 2.6 0.00 0.00 0.00 81 1007.7
20220124073519 28 225 0.9 3.5 0.00 0.00 0.00 81 1007.8
20220124073019 28 270 0.9 4.3 0.00 0.00 0.00 81 1007.7
20220124072516 28 225 0.9 4.3 0.00 0.00 0.00 81 1007.8
20220124072019 29 225 0.9 2.6 0.00 0.00 0.00 81 1007.7
20220124071519 29 270 0.9 2.6 0.00 0.00 0.00 81 1007.7
20220124071019 29 293 0.9 3.5 0.00 0.00 0.00 81 1007.8
20220124070516 29 293 1.7 3.5 0.00 0.00 0.00 81 1007.7
20220124070019 29 225 0.9 2.6 0.00 0.00 0.00 80 1007.6
20220124065519 29 270 0.9 2.6 0.00 0.00 0.00 80 1007.7
20220124065019 29 315 0.9 3.5 0.00 0.00 0.00 80 1007.5
20220124064516 29 225 0.9 1.7 0.00 0.00 0.00 80 1007.6
20220124064019 29 293 0.9 1.7 0.00 0.00 0.00 80 1007.5
20220124063519 29 225 0.9 2.6 0.00 0.00 0.00 80 1007.6
20220124063019 29 225 0.9 2.6 0.00 0.00 0.00 80 1007.6
20220124062517 29 0.0 1.7 0.00 0.00 0.00 80 1007.6
20220124062019 29 203 0.9 1.7 0.00 0.00 0.00 80 1007.6
20220124061519 29 225 0.9 2.6 0.00 0.00 0.00 80 1007.6
20220124061019 29 225 0.9 2.6 0.00 0.00 0.00 79 1007.5
20220124060520 29 203 0.9 1.7 0.00 0.00 0.00 79 1007.5
20220124060019 29 225 0.9 2.6 0.00 0.00 0.00 79 1007.6
20220124055516 29 225 0.9 2.6 0.00 0.00 0.00 79 1007.6
20220124055016 29 0.0 0.9 0.00 0.00 0.00 79 1007.5
20220124054519 29 225 0.9 1.7 0.00 0.00 0.00 78 1007.5
20220124054019 29 0.0 1.7 0.00 0.00 0.00 78 1007.5
20220124053517 29 0.0 1.7 0.00 0.00 0.00 78 1007.6
20220124053019 29 225 0.9 1.7 0.00 0.00 0.00 78 1007.6
20220124052519 29 225 0.9 1.7 0.00 0.00 0.00 77 1007.6
20220124052016 29 0.0 0.9 0.00 0.00 0.00 77 1007.7
20220124051519 29 0.0 1.7 0.00 0.00 0.00 77 1007.8
20220124051019 29 0.0 0.9 0.00 0.00 0.00 76 1007.7
20220124050516 29 225 0.9 1.7 0.00 0.00 0.00 76 1007.8
20220124050019 29 203 0.9 1.7 0.00 0.00 0.00 76 1007.8
20220124045519 29 0.0 1.7 0.00 0.00 0.00 76 1007.7
20220124045016 29 248 0.9 2.6 0.00 0.00 0.00 75 1007.7
20220124044520 29 225 0.9 2.6 0.00 0.00 0.00 75 1007.7
20220124044020 29 225 0.9 1.7 0.00 0.00 0.00 74 1007.8
20220124043519 29 270 0.9 1.7 0.00 0.00 0.00 74 1007.9
20220124043019 29 225 0.9 2.6 0.00 0.00 0.00 74 1007.9
20220124042517 30 0.0 1.7 0.00 0.00 0.00 73 1008.0
20220124042020 30 293 0.9 2.6 0.00 0.00 0.00 73 1008.0
20220124041519 30 293 0.9 2.6 0.00 0.00 0.00 73 1008.0
20220124041016 30 0.0 1.7 0.00 0.00 0.00 73 1007.9
20220124040519 30 293 0.9 2.6 0.00 0.00 0.00 72 1008.0
20220124040020 30 293 0.9 3.5 0.00 0.00 0.00 72 1008.1
20220124035519 30 293 1.7 4.3 0.00 0.00 0.00 71 1008.1
20220124035020 30 315 1.7 5.2 0.00 0.00 0.00 70 1008.1
20220124034519 30 225 0.9 1.7 0.00 0.00 0.00 70 1008.1
20220124034019 30 270 1.7 4.3 0.00 0.00 0.00 69 1008.1
20220124033520 31 270 0.9 5.2 0.00 0.00 0.00 69 1008.0
20220124033019 31 293 1.7 3.5 0.00 0.00 0.00 68 1008.0
20220124032517 31 293 3.5 7.8 0.00 0.00 0.00 67 1008.1
20220124032020 31 293 1.7 5.2 0.00 0.00 0.00 65 1008.0
20220124031516 31 270 2.6 7.8 0.00 0.00 0.00 64 1008.0
20220124031020 31 293 2.6 6.1 0.00 0.00 0.00 63 1008.1
20220124030519 32 293 1.7 5.2 0.00 0.00 0.00 62 1008.0
20220124030019 32 315 2.6 7.0 0.00 0.00 0.00 60 1007.9
20220124025520 32 315 3.5 7.8 0.00 0.00 0.00 59 1007.9
20220124025019 32 315 1.7 5.2 0.00 0.00 0.00 57 1007.8
20220124024516 32 315 2.6 6.1 0.00 0.00 0.00 56 1007.8
20220124024019 32 293 1.7 6.1 0.00 0.00 0.00 56 1007.9
20220124023516 32 293 2.6 7.0 0.00 0.00 0.00 57 1007.8
20220124023019 32 293 1.7 6.1 0.00 0.00 0.00 59 1007.6
20220124022520 32 225 1.7 3.5 0.00 0.00 0.00 60 1007.5
20220124022017 32 225 1.7 4.3 0.00 0.00 0.00 59 1007.4
20220124021519 32 225 0.9 4.3 0.00 0.00 0.00 59 1007.4
20220124021020 32 225 1.7 5.2 0.00 0.00 0.00 59 1007.4
20220124020517 32 225 1.7 3.5 0.00 0.00 0.00 59 1007.4
20220124020017 33 225 2.6 4.3 0.00 0.00 0.00 58 1007.4
20220124015520 33 225 1.7 6.1 0.00 0.00 0.00 58 1007.4
20220124015016 33 225 2.6 6.1 0.00 0.00 0.00 58 1007.5
20220124014519 33 225 2.6 7.0 0.00 0.00 0.00 57 1007.5
20220124014016 33 225 2.6 9.6 0.00 0.00 0.00 57 1007.6
20220124013520 33 225 2.6 6.1 0.00 0.00 0.00 56 1007.6
20220124013017 33 225 1.7 5.2 0.00 0.00 0.00 55 1007.6
20220124012516 33 225 2.6 7.8 0.00 0.00 0.00 55 1007.5
20220124012016 33 225 1.7 4.3 0.00 0.00 0.00 55 1007.4
20220124011517 33 225 2.6 9.6 0.00 0.00 0.00 54 1007.5
20220124011019 33 225 2.6 5.2 0.00 0.00 0.00 54 1007.5
20220124010516 33 225 2.6 7.0 0.00 0.00 0.00 53 1007.6
20220124010019 33 225 1.7 7.0 0.00 0.00 0.00 53 1007.6
20220124005519 33 225 2.6 7.0 0.00 0.00 0.00 53 1007.6
20220124005017 33 225 3.5 9.6 0.00 0.00 0.00 52 1007.6
20220124004519 33 225 3.5 7.8 0.00 0.00 0.00 52 1007.6
20220124004019 33 225 2.6 7.0 0.00 0.00 0.00 52 1007.5
20220124003519 33 225 1.7 6.1 0.00 0.00 0.00 51 1007.6
20220124003019 33 225 3.5 7.8 0.00 0.00 0.00 51 1007.5
20220124002519 33 225 2.6 7.8 0.00 0.00 0.00 51 1007.5
20220124002017 33 225 3.5 7.8 0.00 0.00 0.00 50 1007.4
20220124001519 33 225 2.6 6.1 0.00 0.00 0.00 49 1007.4
20220124001016 33 225 3.5 7.8 0.00 0.00 0.00 49 1007.3
20220124000519 33 225 2.6 5.2 0.00 0.00 0.00 48 1007.3
20220124000019 33 225 1.7 4.3 0.00 0.00 0.00 48 1007.2
20220123235516 33 203 1.7 4.3 0.00 0.00 0.00 47 1007.2
20220123235017 33 203 1.7 4.3 0.00 0.00 0.00 47 1007.1
20220123234520 33 203 0.9 3.5 0.00 0.00 0.00 47 1007.0
20220123234019 33 180 0.9 3.5 0.00 0.00 0.00 47 1006.9
20220123233516 33 225 0.9 3.5 0.00 0.00 0.00 47 1007.0
20220123233019 33 180 0.9 4.3 0.00 0.00 0.00 47 1006.9
20220123232517 33 180 1.7 4.3 0.00 0.00 0.00 47 1006.9
20220123232016 33 135 0.9 2.6 0.00 0.00 0.00 47 1006.9
20220123231516 33 180 1.7 4.3 0.00 0.00 0.00 47 1006.9
20220123231016 33 158 0.9 3.5 0.00 0.00 0.00 47 1007.0
20220123230519 34 180 1.7 3.5 0.00 0.00 0.00 46 1006.9
20220123230019 34 203 0.9 3.5 0.00 0.00 0.00 46 1006.9
20220123225516 34 180 1.7 4.3 0.00 0.00 0.00 46 1006.8
20220123225019 34 203 1.7 5.2 0.00 0.00 0.00 46 1006.7
20220123224516 34 203 1.7 4.3 0.00 0.00 0.00 46 1006.8
20220123224019 34 203 1.7 4.3 0.00 0.00 0.00 45 1006.8
20220123223516 34 180 1.7 5.2 0.00 0.00 0.00 45 1006.8
20220123223019 34 203 1.7 4.3 0.00 0.00 0.00 45 1006.7
20220123222519 34 203 1.7 4.3 0.00 0.00 0.00 45 1006.7
20220123222020 34 203 1.7 4.3 0.00 0.00 0.00 44 1006.7
20220123221519 34 203 2.6 5.2 0.00 0.00 0.00 44 1006.7
20220123221019 34 225 1.7 5.2 0.00 0.00 0.00 45 1006.6
20220123220519 34 203 0.9 3.5 0.00 0.00 0.00 44 1006.6
20220123220016 34 203 1.7 4.3 0.00 0.00 0.00 44 1006.7
20220123215519 34 158 0.9 2.6 0.00 0.00 0.00 44 1006.7
20220123215020 34 225 2.6 6.1 0.00 0.00 0.00 44 1006.7
20220123214519 34 225 1.7 6.1 0.00 0.00 0.00 43 1006.7
20220123214019 34 225 1.7 5.2 0.00 0.00 0.00 43 1006.6
20220123213516 34 225 1.7 5.2 0.00 0.00 0.00 43 1006.6
20220123213019 35 225 1.7 3.5 0.00 0.00 0.00 42 1006.5
20220123212519 35 225 2.6 6.1 0.00 0.00 0.00 42 1006.4
20220123212016 35 225 1.7 3.5 0.00 0.00 0.00 42 1006.4
20220123211519 35 225 2.6 4.3 0.00 0.00 0.00 42 1006.5
20220123211020 35 225 1.7 7.0 0.00 0.00 0.00 42 1006.4
20220123210516 35 225 2.6 5.2 0.00 0.00 0.00 42 1006.4
20220123210019 35 225 1.7 6.1 0.00 0.00 0.00 42 1006.3
20220123205519 35 225 2.6 5.2 0.00 0.00 0.00 42 1006.4
20220123205020 35 225 2.6 7.0 0.00 0.00 0.00 41 1006.4
20220123204519 35 225 1.7 4.3 0.00 0.00 0.00 41 1006.4
20220123204019 35 225 3.5 9.6 0.00 0.00 0.00 41 1006.4
20220123203516 35 225 3.5 8.7 0.00 0.00 0.00 41 1006.3
20220123203020 35 225 3.5 8.7 0.00 0.00 0.00 40 1006.4
20220123202519 35 225 2.6 7.0 0.00 0.00 0.00 41 1006.4
20220123202016 35 225 2.6 7.0 0.00 0.00 0.00 40 1006.5
20220123201519 35 225 3.5 7.8 0.00 0.00 0.00 41 1006.5
20220123201020 35 225 2.6 7.0 0.00 0.00 0.00 41 1006.5
20220123200519 35 225 2.6 6.1 0.00 0.00 0.00 40 1006.5
20220123200016 35 225 2.6 6.1 0.00 0.00 0.00 40 1006.6
20220123195517 35 225 2.6 6.1 0.00 0.00 0.00 41 1006.7
20220123195019 35 225 2.6 6.1 0.00 0.00 0.00 40 1006.7
20220123194519 35 225 2.6 5.2 0.00 0.00 0.00 40 1006.7
20220123194019 35 225 3.5 7.0 0.00 0.00 0.00 40 1006.7
20220123193516 36 225 1.7 5.2 0.00 0.00 0.00 41 1006.8
20220123193016 35 225 3.5 7.8 0.00 0.00 0.00 42 1006.8
20220123192520 35 225 2.6 7.8 0.00 0.00 0.00 41 1006.9
20220123192019 35 203 2.6 5.2 0.00 0.00 0.00 41 1006.9
20220123191519 35 225 4.3 7.0 0.00 0.00 0.00 40 1007.0
20220123191019 35 203 3.5 8.7 0.00 0.00 0.00 40 1007.0
20220123190516 36 225 3.5 7.8 0.00 0.00 0.00 40 1007.1
20220123190016 35 225 2.6 9.6 0.00 0.00 0.00 41 1007.1
20220123185520 35 225 2.6 8.7 0.00 0.00 0.00 41 1007.2
20220123185019 36 225 4.3 11.3 0.00 0.00 0.00 40 1007.3
20220123184516 36 225 2.6 7.8 0.00 0.00 0.00 41 1007.3
20220123184016 36 225 4.3 10.4 0.00 0.00 0.00 40 1007.3
20220123183516 36 225 2.6 6.1 0.00 0.00 0.00 41 1007.3
20220123183019 35 225 2.6 7.8 0.00 0.00 0.00 41 1007.4
20220123182519 35 225 4.3 11.3 0.00 0.00 0.00 41 1007.5
20220123182016 35 225 5.2 11.3 0.00 0.00 0.00 40 1007.6
20220123181519 35 225 2.6 9.6 0.00 0.00 0.00 41 1007.7
20220123181019 35 225 3.5 7.0 0.00 0.00 0.00 42 1007.8
20220123180516 34 225 4.3 7.8 0.00 0.00 0.00 42 1007.9
20220123180019 35 225 2.6 7.8 0.00 0.00 0.00 43 1008.0
20220123175516 34 225 3.5 7.8 0.00 0.00 0.00 43 1008.1
20220123175017 35 225 2.6 7.8 0.00 0.00 0.00 42 1008.2
20220123174516 34 225 3.5 8.7 0.00 0.00 0.00 43 1008.2
20220123174016 34 225 2.6 6.1 0.00 0.00 0.00 44 1008.4
20220123173516 34 225 3.5 9.6 0.00 0.00 0.00 43 1008.6
20220123173020 34 225 3.5 7.0 0.00 0.00 0.00 43 1008.6
20220123172516 35 225 2.6 6.1 0.00 0.00 0.00 43 1008.6
20220123172019 34 225 3.5 7.8 0.00 0.00 0.00 44 1008.7
20220123171519 33 225 3.5 7.0 0.00 0.00 0.00 44 1008.8
20220123171016 34 225 2.6 5.2 0.00 0.00 0.00 44 1008.8
20220123170516 34 225 2.6 7.0 0.00 0.00 0.00 45 1008.9
20220123170016 33 225 2.6 6.1 0.00 0.00 0.00 46 1009.0
20220123165517 33 225 2.6 7.0 0.00 0.00 0.00 45 1009.0
20220123165019 33 225 2.6 6.1 0.00 0.00 0.00 46 1009.2
20220123164516 32 225 3.5 8.7 0.00 0.00 0.00 46 1009.3
20220123164019 32 225 3.5 7.8 0.00 0.00 0.00 47 1009.4
20220123163516 32 225 2.6 7.0 0.00 0.00 0.00 48 1009.6
20220123163020 31 225 3.5 7.8 0.00 0.00 0.00 48 1009.8
20220123162516 31 225 2.6 7.0 0.00 0.00 0.00 49 1009.9
20220123162016 31 225 3.5 7.0 0.00 0.00 0.00 50 1010.1
20220123161516 31 225 2.6 8.7 0.00 0.00 0.00 50 1010.2
20220123161019 30 225 3.5 7.0 0.00 0.00 0.00 51 1010.3
20220123160516 30 225 2.6 7.0 0.00 0.00 0.00 50 1010.4
20220123160020 30 225 2.6 6.1 0.00 0.00 0.00 51 1010.4
20220123155519 29 225 2.6 7.8 0.00 0.00 0.00 51 1010.5
20220123155019 30 225 2.6 7.0 0.00 0.00 0.00 51 1010.6
20220123154520 29 225 1.7 4.3 0.00 0.00 0.00 52 1010.6
20220123154019 29 225 1.7 5.2 0.00 0.00 0.00 52 1010.6
20220123153520 29 225 1.7 4.3 0.00 0.00 0.00 53 1010.6
20220123153019 29 225 2.6 5.2 0.00 0.00 0.00 53 1010.7
20220123152519 28 225 1.7 3.5 0.00 0.00 0.00 54 1010.8
20220123152016 27 225 3.5 6.1 0.00 0.00 0.00 55 1011.0
20220123151519 27 225 2.6 6.1 0.00 0.00 0.00 56 1011.1
20220123151019 27 225 2.6 6.1 0.00 0.00 0.00 56 1011.1
20220123150516 27 225 1.7 5.2 0.00 0.00 0.00 57 1011.2
20220123150017 27 225 1.7 4.3 0.00 0.00 0.00 58 1011.1
20220123145519 26 225 1.7 4.3 0.00 0.00 0.00 59 1011.2
20220123145019 26 225 1.7 4.3 0.00 0.00 0.00 61 1011.3
20220123144519 25 225 1.7 4.3 0.00 0.00 0.00 63 1011.3
20220123144020 25 225 1.7 4.3 0.00 0.00 0.00 65 1011.2
20220123143519 24 225 1.7 5.2 0.00 0.00 0.00 65 1011.2
20220123143016 24 225 1.7 4.3 0.00 0.00 0.00 65 1011.4
20220123142519 24 225 1.7 4.3 0.00 0.00 0.00 65 1011.4
20220123142019 24 225 1.7 5.2 0.00 0.00 0.00 65 1011.4
20220123141517 24 225 1.7 6.1 0.00 0.00 0.00 65 1011.4
20220123141019 24 225 2.6 5.2 0.00 0.00 0.00 66 1011.4
20220123140519 23 225 3.5 7.8 0.00 0.00 0.00 66 1011.5
20220123140016 23 225 2.6 7.8 0.00 0.00 0.00 67 1011.6
20220123135519 23 225 2.6 6.1 0.00 0.00 0.00 67 1011.6
20220123135020 23 225 2.6 5.2 0.00 0.00 0.00 68 1011.7
20220123134516 23 225 1.7 6.1 0.00 0.00 0.00 68 1011.7
20220123134019 23 225 2.6 6.1 0.00 0.00 0.00 68 1011.7
20220123133519 23 225 3.5 7.0 0.00 0.00 0.00 68 1011.7
20220123133016 23 225 2.6 6.1 0.00 0.00 0.00 69 1011.8
20220123132522 23 225 2.6 4.3 0.00 0.00 0.00 70 1011.9
20220123132016 23 225 1.7 2.6 0.00 0.00 0.00 70 1011.9
20220123131516 23 225 2.6 6.1 0.00 0.00 0.00 70 1011.9
20220123131020 23 225 2.6 7.0 0.00 0.00 0.00 71 1012.0
20220123130519 23 225 1.7 5.2 0.00 0.00 0.00 71 1012.1
20220123130016 22 225 1.7 3.5 0.00 0.00 0.00 71 1012.1
20220123125519 22 225 0.9 3.5 0.00 0.00 0.00 71 1012.2
20220123125019 22 225 1.7 4.3 0.00 0.00 0.00 72 1012.3
20220123124519 22 225 2.6 4.3 0.00 0.00 0.00 72 1012.4
20220123124019 22 225 2.6 6.1 0.00 0.00 0.00 72 1012.5
20220123123519 22 225 2.6 7.0 0.00 0.00 0.00 73 1012.5
20220123123017 22 225 1.7 3.5 0.00 0.00 0.00 73 1012.6
20220123122516 22 225 2.6 5.2 0.00 0.00 0.00 73 1012.6
20220123122019 22 225 1.7 4.3 0.00 0.00 0.00 74 1012.6
20220123121519 22 225 0.9 3.5 0.00 0.00 0.00 74 1012.7
20220123121016 22 225 1.7 3.5 0.00 0.00 0.00 74 1012.7
20220123120520 22 225 0.9 4.3 0.00 0.00 0.00 75 1012.9
20220123120019 22 225 1.7 5.2 0.00 0.00 0.00 75 1012.8
20220123115519 21 225 1.7 4.3 0.00 0.00 0.00 75 1012.8
20220123115016 21 225 1.7 4.3 0.00 0.00 0.00 75 1012.9
20220123114519 21 225 2.6 6.1 0.00 0.00 0.00 75 1012.8
20220123114019 21 225 2.6 7.0 0.00 0.00 0.00 75 1012.7
20220123113519 22 225 1.7 5.2 0.00 0.00 0.00 75 1012.8
20220123113017 22 225 2.6 6.1 0.00 0.00 0.00 75 1012.7
20220123112516 22 225 1.7 4.3 0.00 0.00 0.00 75 1012.6
20220123112019 22 225 2.6 4.3 0.00 0.00 0.00 75 1012.5
20220123111516 22 225 1.7 4.3 0.00 0.00 0.00 75 1012.6
20220123111019 22 225 1.7 4.3 0.00 0.00 0.00 75 1012.5
20220123110520 22 225 1.7 5.2 0.00 0.00 0.00 75 1012.6
20220123110016 22 225 1.7 5.2 0.00 0.00 0.00 75 1012.6
20220123105519 22 225 1.7 6.1 0.00 0.00 0.00 75 1012.6
20220123105020 22 225 2.6 5.2 0.00 0.00 0.00 75 1012.5
20220123104520 22 225 2.6 5.2 0.00 0.00 0.00 75 1012.5
20220123104019 22 225 2.6 4.3 0.00 0.00 0.00 75 1012.5
20220123103516 22 203 2.6 5.2 0.00 0.00 0.00 75 1012.5
20220123103019 22 225 1.7 4.3 0.00 0.00 0.00 75 1012.6
20220123102516 22 225 2.6 7.0 0.00 0.00 0.00 75 1012.6